Terminal Aerodrome Forecast
Issued by NWS Sioux Falls, SD

Home | Current Version | Previous Version | Text Only | Print | Product List | Glossary On
Versions: 1 2 3 4 5 6 7 8 9 10 11 12 13 14 15 16 17 18 19 20 21 22 23 24 25 26 27 28 29 30 31 32 33 34 35 36 37 38
000
FTUS43 KFSD 261720
TAFSUX
TAF
KSUX 261720Z 2618/2718 35022G30KT P6SM OVC015
     FM262130 34015G22KT P6SM SKC
     FM270100 33010KT P6SM SKC
     FM270700 VRB04KT P6SM SCT120
     FM271600 12006KT P6SM BKN120=

USA.gov is the U.S. government's official web portal to all federal, state and local government web resources and services.